Location: Newark
(38.7000°N, 9.1833°W)
Time: 08:26:03
(UTC+00:00)

Envisat - Visible Passes

Search period start: 23 October 2019 00:00
Search period end: 02 November 2019 00:00
Orbit: 764 x 766 km, 98.1° (Epoch: 23 October)

Date Brightness Start Highest point End Pass type
(mag) Time Alt. Az. Time Alt. Az. Time Alt. Az.
23 Oct 6.6 06:08:48 10° ENE 06:10:29 11° E 06:12:10 10° ESE visible
23 Oct 3.5 18:58:00 10° S 19:03:01 65° W 19:08:05 10° NNW visible
24 Oct 3.1 18:21:22 10° SSE 18:26:18 56° ENE 18:31:17 10° N visible
24 Oct 5.9 20:02:40 10° SW 20:05:39 16° W 20:08:39 10° NW visible
25 Oct 4.6 19:23:59 10° SSW 19:28:36 35° W 19:33:15 10° NNW visible
26 Oct 3.1 18:46:40 10° S 18:51:45 83° WSW 18:56:52 10° NNW visible
27 Oct 3.3 18:10:19 10° SE 18:15:05 44° ENE 18:19:54 10° N visible
27 Oct 5.6 19:50:36 10° SW 19:54:17 20° W 19:57:59 10° NW visible
28 Oct 6.1 06:21:40 10° NE 06:24:54 17° E 06:28:05 10° SE visible
28 Oct 4.1 19:12:27 10° S 19:17:18 45° W 19:22:10 10° NNW visible
29 Oct 2.9 18:35:26 10° SSE 18:40:30 78° ENE 18:45:36 10° N visible
29 Oct 6.3 20:18:57 10° WSW 20:20:03 11° W 20:21:09 10° WNW visible
30 Oct 3.6 17:59:21 10° SE 18:03:54 34° ENE 18:08:27 10° N visible
30 Oct 5.2 19:38:45 10° SSW 19:42:56 25° W 19:47:07 10° NW visible
31 Oct 6.4 06:11:15 10° ENE 06:13:30 13° E 06:15:45 10° ESE visible
31 Oct 3.6 19:01:01 10° S 19:06:00 59° W 19:11:01 10° NNW visible
01 Nov 3.0 18:24:17 10° SSE 18:29:15 61° ENE 18:34:17 10° N visible
01 Nov 6.0 20:06:01 10° WSW 20:08:39 14° W 20:11:19 10° WNW visible
